Location: Lac de la Montagne noire
(46.1952°N, 74.2701°W)
Time: 00:30:47
(UTC-05:00)

ISS - Visible Passes

Search period start: 24 November 2017 00:00
Search period end: 04 December 2017 00:00
Orbit: 402 x 407 km, 51.6° (Epoch: 24 November)

Date Brightness Start Highest point End Pass type
(mag) Time Alt. Az. Time Alt. Az. Time Alt. Az.
26 Nov -1.2 18:35:03 10° SSW 18:35:47 15° SSW 18:35:47 15° SSW visible
27 Nov -1.9 17:43:32 10° S 17:45:46 17° SE 17:45:51 17° SE visible
28 Nov -2.6 18:26:19 10° SW 18:28:29 37° SSW 18:28:29 37° SSW visible
29 Nov -2.9 17:34:15 10° SSW 17:37:15 35° SE 17:38:23 26° E visible
29 Nov -0.5 19:10:29 10° W 19:11:03 14° W 19:11:03 14° W visible
30 Nov -3.4 18:17:58 10° WSW 18:20:52 62° WNW 18:20:52 62° WNW visible
01 Dec -3.8 17:25:34 10° SW 17:28:50 73° SSE 17:30:37 24° ENE visible
01 Dec -0.8 19:02:27 10° W 19:03:16 16° WNW 19:03:16 16° WNW visible
02 Dec -3.1 18:09:48 10° W 18:12:58 44° NNW 18:12:58 44° NNW visible
03 Dec -3.6 17:17:13 10° WSW 17:20:28 62° NNW 17:22:38 19° NE visible
03 Dec -1.0 18:54:23 10° WNW 18:55:17 16° WNW 18:55:17 16° WNW visible
